www.pogodaiklimat.ru
ПОГОДА на Базе ВВС Ванденберг
Время
и дата
14:55 06.12
15:55 06.12
16:55 06.12
17:26 06.12
17:49 06.12
17:55 06.12
18:55 06.12
19:55 06.12
20:55 06.12
21:55 06.12
22:55 06.12
23:55 06.12
00:55 07.12
01:55 07.12
02:55 07.12
03:55 07.12
04:55 07.12
05:55 07.12
06:55 07.12
07:15 07.12
07:55 07.12
08:55 07.12
09:55 07.12
10:55 07.12
11:55 07.12
12:55 07.12
13:55 07.12
14:55 07.12
15:55 07.12
16:55 07.12
17:55 07.12
18:55 07.12
19:55 07.12
20:55 07.12
21:55 07.12
22:55 07.12
23:55 07.12
00:55 08.12
01:55 08.12
02:55 08.12
03:55 08.12
04:55 08.12
05:55 08.12
06:55 08.12
07:25 08.12
07:55 08.12
08:55 08.12
09:55 08.12
Ветер
(напр.,м/с)
Видим. Явления Облачность Т
(С)
Тd
(С)
f
(%)
Тe
(С)
Тes
(С)
Комфортность P
(гПа)
Po
(гПа)
Тmin
(С)
Tmax
(С)
R
(мм)
R24
(мм)
S
(см)
З 4 16 км 8/5 300 m
[Ac]
+13.7 +9.7 77 +12 +13 1017.6 1003.7
З 4 16 км 8/5 300 m
[Ac]
+13.3 +9.9 80 +12 +12 1018.0 1004.0 +11.8 +15.0
СЗ 2 16 км 8/5 300 m
[Ac]
+11.1 +8.5 84 +10 +10 1018.4 1004.4
С 4 16 км слабый дождь 10/10 600 m
[Ns]
+10.0 +8.0 87 +7 +7 1019.0 1005.0
штиль 0 16 км 10/10 1440 м +10.0 +8.0 87 +9 +9 1019.0 1005.0
штиль 0 16 км 10/8 1440 m
[Ac]
+9.6 +8.0 90 +9 +9 1019.0 1005.0
штиль 0 16 км ясно +7.8 +7.4 97 +7 +7 1019.1 1005.0
ЮВ 2 16 км ясно +6.4 +6.1 98 +4 +4 1019.1 1005.0
ЮВ 2 16 км ясно +5.6 +5.3 98 +3 +3 1019.4 1005.4
ЮВ 3 16 км ясно +5.6 +5.3 98 +2 +2 1020.0 1006.1 +5.3 +13.3
ЮВ 3 16 км ясно +4.7 +4.4 98 +1 +1 1020.4 1006.4
ЮВ 2 16 км ясно +4.5 +4.2 98 +2 +2 1020.7 1006.7
ЮВ 3 16 км ясно +4.9 +4.6 98 +1 +1 1020.3 1006.4
ЮВ 3 16 км ясно +4.5 +4.2 98 +1 +1 1020.7 1006.7
ЮВ 3 16 км ясно +4.6 +4.5 99 +1 +1 1020.7 1006.7
ЮВ 3 16 км 10/10 1230 м +5.0 +4.9 99 +1 +1 1021.1 1007.1 +3.8 +5.8
ЮВ 4 16 км ясно +4.2 +4.1 99 0 0 1021.4 1007.4
ЮВ 3 16 км ясно +4.6 +4.3 98 +1 +1 1022.1 1008.1
ЮВ 4 16 км ясно +4.4 +4.1 98 0 0 1022.5 1008.4
ЮВ 4 16 км 2/2 900 м +5.0 +4.0 93 +1 +1 1022.8 1008.7
ЮВ 4 16 км 2/2 900 м +5.7 +5.4 98 +2 +2 1023.2 1009.1
ЮВ 4 16 км 2/2 900 м +7.8 +6.7 93 +4 +5 1023.8 1009.7
ЮВ 3 16 км 2/2 900 м +10.4 +7.8 84 +8 +10 1024.5 1010.4 +4.0 +10.4
СВ 2 16 км 5/5 900 м +12.0 +7.5 74 +11 +13 1024.5 1010.4
СЗ 2 16 км 2/2 600 м +13.2 +8.1 71 +13 +17 1023.8 1009.7
СЗ 3 16 км 2/2 120 м +13.5 +7.5 67 +12 +17 1023.8 1009.7
СЗ 4 16 км 2/2 120 м +13.3 +7.3 67 +12 +15 1023.4 1009.4
СЗ 3 16 км 2/2 120 м +13.3 +8.4 72 +12 +15 1024.1 1010.1
СЗ 3 16 км 2/2 120 м +12.5 +8.2 75 +11 +13 1024.8 1010.7 +10.5 +14.0
СЗ 2 16 км 2/2 120 м +10.0 +7.4 84 +8 +9 1024.8 1010.7
штиль 0 16 км 2/2 120 м +8.8 +7.1 89 +8 +8 1025.2 1011.1
штиль 0 16 км 2/2 150 м +7.4 +6.0 91 +6 +6 1025.6 1011.4
В 2 16 км ясно +5.9 +5.3 96 +3 +3 1025.6 1011.4
Ю 3 16 км ясно +6.0 +5.7 98 +3 +3 1025.5 1011.4
ЮВ 3 16 км ясно +5.4 +5.1 98 +2 +2 1026.2 1012.1 +5.1 +12.4
ЮВ 3 16 км ясно +5.2 +4.9 98 +2 +2 1026.5 1012.4
ЮВ 3 16 км ясно +5.4 +5.1 98 +2 +2 1026.8 1012.7
ЮВ 3 16 км ясно +5.1 +4.8 98 +1 +1 1026.8 1012.7
ЮВ 4 16 км ясно +4.7 +4.4 98 0 0 1026.8 1012.7
ЮВ 4 16 км ясно +5.2 +4.9 98 +1 +1 1026.8 1012.7
ЮВ 4 16 км ясно +4.4 +4.1 98 0 0 1026.5 1012.4 +4.2 +5.6
ЮВ 4 16 км ясно +4.8 +4.4 97 0 0 1026.5 1012.4
ЮВ 3 16 км ясно +3.6 +3.3 98 -1 -1 1026.6 1012.4
ЮВ 4 14 км ясно +4.0 +3.7 98 -1 -1 1027.3 1013.1
ЮВ 4 16 км 2/2 1200 m
[Ac]
+5.0 +4.0 93 +1 +1 1027.6 1013.4
ЮВ 3 16 км 2/2 1200 m
[Ac]
+5.4 +4.8 96 +2 +2 1028.0 1013.7
ЮВ 4 16 км 2/2 1200 m
[Ac]
+7.7 +6.3 91 +4 +5 1027.9 1013.7
ЮВ 4 16 км 5/2 300 m
[Ac]
+10.4 +7.3 81 +8 +9 1028.2 1014.1 +3.0 +10.4
Местоположение метеостанции Vandenberg Air Force Base: широта 34.7294 долгота -120.5767 высота над уровнем моря 112 м.
В архиве по умолчанию представлена погода на Базе ВВС Ванденберг за последние 1-2 суток. Обновление информации о фактической погоде в базе происходит ежечасно! Архивные данные за месяц целиком и за предыдущие месяцы Вы можете получить, выбрав интересующий диапазон дат из раскрывающегося списка и нажав кнопку "Ввод!".
Внимание! Архив погоды МЕТАР в базе сайта по станциям, не включенным в климатический монитор, хранится не более 60 дней. Нет смысла пытаться выбрать более раннюю дату.
*Определитесь, кто Вы:
Внимание! Время в таблицах - местное (без учета летнего времени). Для получения всемирного времени необходимо вычесть поправку, которая равна -8 ч.
Смотрите также архив погоды в соседних городах и на ближайших метеорологических станциях:
Партнеры нашего сайта:      
Пояснения к столбцам:
  • Ветер - указаны скорость ветра в м/с - средняя за 10 мин, порывы в срок и между сроками (в фигурных скобках) и направление, откуда дует ветер: С - северный,
  • СВ - северо-восточный, В - восточный, ЮВ - юго-восточный, Ю - южный, ЮЗ - юго-западный, З - западный, СЗ - северо-западный.
  • Видимость - горизонтальная дальность видимости в метрах или километрах. При видимости от 1 до 10 км при отсутствии осадков обычно наблюдается дымка, при ухудшении видимости до 1 км и менее - туман. В сухую погоду видимость может ухудшаться дымом, пылью или мглою.
  • Явления - указаны атмосферные явления, наблюдавшиеся в срок или в последний час перед сроком; фигурными скобками обозначены явления, наблюдавшиеся между сроками (за 1-3 часа до срока); квадратными скобками обозначены град или гололедные отложения с указанием их диаметра в мм.
  • Облачность - указаны через наклонную черту общая и нижняя облачность в баллах и высота нижней границы облаков в метрах; квадратными скобками обозначены формы облаков: Ci - перистые, Cs - перисто-слоистые, Cc - перисто-кучевые, Ac - высококучевые, As - высокослоистые, Sc - слоисто-кучевые, Ns - слоисто-дождевые, Cu - кучевые, Cb - кучево-дождевые. Подробнее классификацию облаков см. в Атласе облаков (PDF).
  • T - Температура воздуха - температура, измеренная на высоте 2 м над землей.
  • Td - Температура точки росы - температура, при понижении до которой содержащийся в воздухе водяной пар достигнет насыщения.
  • f - Относительная влажность воздуха - влажноcть воздуха, измеренная на высоте 2 м над землей.
  • Te - Эффективная температура - температура, которую ощущает одетый по сезону человек в тени. Характеристика душности погоды. При расчете учитывается влияние влажности воздуха и скорости ветра на теплоощущения человека.
  • Tes - Эффективная температура на солнце - температура, которую ощущает человек, с поправкой на солнечный нагрев. Характеристика знойности погоды. Зависит от высоты солнца над горизонтом, облачности и скорости ветра. Ночью, в пасмурную погоду, а также при ветре 12 м/с и более поправка равна нулю.
  • P - Атмосферное давление - приведенное к уровню моря атмосферное давление.
  • Po - Атмосферное давление - измеренное на уровне метеостанции атмосферное давление.
  • Tmin - Минимальная температура - минимум температуры воздуха на высоте 2 м над землей.
  • Tmax - Максимальная температура - максимум температуры воздуха на высоте 2 м над землей.
  • R - Количество осадков - Количество выпавших осадков за период времени, мм. При наведении курсора мыши на число - период времени, за который выпало указанное количество осадков.
  • R24 - Количество осадков - Количество выпавших осадков за 24 часа, мм.
  • S - Снежный покров - Высота снежного покрова, см. При наведении курсора мыши на число - состояние снежного покрова и степень покрытия местности в баллах.